Find Shiyan 28B-02

NORAD ID: 65226 Int'l Des: 2025-177 Owner: ZZB Country: CN operational
LEOCIRCULAR

現在のビュー

3D地球を読み込み中...

About Shiyan 28B-02

Shiyan 28B-02 (NORAD 65226) is a satellite launched Aug 17, 2025 by ZZB of CN. It operates in LEO, CIRCULAR orbit with a mass of 2000.00 kg.

次回通過

Passes for default location (London). Set your location on the main map for personalized predictions.

高度履歴

Loading altitude history...

軌道要素

1 65226U 25177A 26195.38734916 .00000529 00000-0 37525-4 0 9999
2 65226 10.9990 116.4848 0003770 285.5785 74.4027 14.29406272 47439
Epoch: Jul 14, 2026 • Age: 14 hours

現在のステータス

高度 792.7 km
遠地点 / 近地点 N/A
速度 7.46 km/s
衛星直下点 11.01°N, 72.1°W
打ち上げ日 Aug 17, 2025
運用期間 0.9 years
タイプ other

技術仕様

分類 Payload
質量 2000.00 kg
乾燥質量 2000.00 kg
総質量 2000.00 kg
長さ 2.50 m
直径 2.50 m
スパン 5.00 m
形状 Box + 2 Pan
製造者 IMICAS
フェーズステータス In Orbit
所有者/国 ZZB/CN

Most Searched